Weather History for Wausau, WI

Change the Weather History Date:

Sunday, March 17, 2013

  Actual Average Record
Temperature  
Mean Temperature 16 °F 30 °F  
Max Temperature 24 °F 40 °F 78 °F (2012)
Min Temperature 7 °F 21 °F -12 °F (1941)
Degree Days  
Heating Degree Days 49 35  
Month to date heating degree days 710 646  
Since 1 July heating degree days 6534 6782  
Cooling Degree Days 0 0  
Month to date cooling degree days 0 0  
Year to date cooling degree days 0 0  
Moisture  
Dew Point 3 °F    
Average Humidity 62    
Maximum Humidity 80    
Minimum Humidity 43    
Precipitation  
Precipitation 0.00 in 0.06 in 0.55 in (1966)
Month to date precipitation 1.32 0.87  
Year to date precipitation 4.47 2.81  
Snow  
Snow 0.00 in 0.40 in 9.90 in (1989)
Month to date snowfall 9.0 6.5  
Since 1 July snowfall 65.0 51.8  
Snow Depth 12.00 in    
Sea Level Pressure  
Sea Level Pressure 30.22 in    
Wind  
Wind Speed 9 mph (East)    
Max Wind Speed 15 mph    
Max Gust Speed 20 mph    
Visibility 10 miles    
Events      
T = Trace of Precipitation, MM = Missing Value Source: NWS Daily Summary

Daily Weather History Graph

Daily Weather History Graph

Search for Another Location

Airport:

Trip Planner

Search our weather history database for the weather conditions in past years. The results will help you decide how hot, cold, wet, or windy it might be!

Date:

Astronomy

Mar. 17, 2013 Rise Set
Actual Time 7:06 AM CDT 7:07 PM CDT
Civil Twilight 6:37 AM CDT 7:36 PM CDT
Nautical Twilight 6:03 AM CDT 8:10 PM CDT
Astronomical Twilight 5:28 AM CDT 8:45 PM CDT
Moon 10:05 AM CDT (3/17) 12:29 AM CDT (3/17)
Length of Visible Light 12h 59m
Length of Day
12h 00m
Waxing Crescent, 31% of the Moon is Illuminated
Mar 17
Waxing Crescent
Mar 19
First Quarter
Mar 27
Full
Apr 2
Last Quarter
Apr 10
New

Hourly Weather History & Observations

Time (CDT) Temp. Windchill Dew Point Humidity Pressure Visibility Wind Dir Wind Speed Gust Speed Precip Events Conditions
12:54 AM 16.0 °F 6.3 °F 3.0 °F 57% 30.20 in 10.0 mi NW 6.9 mph - N/A   Clear
1:54 AM 14.0 °F 2.9 °F 3.9 °F 64% 30.23 in 10.0 mi North 8.1 mph - N/A   Clear
2:54 AM 12.0 °F 0.5 °F 1.9 °F 64% 30.26 in 10.0 mi North 8.1 mph - N/A   Clear
3:54 AM 10.0 °F 1.8 °F 1.0 °F 67% 30.27 in 10.0 mi North 4.6 mph - N/A   Clear
4:54 AM 9.0 °F 2.4 °F -0.0 °F 67% 30.27 in 10.0 mi North 3.5 mph - N/A   Clear
5:54 AM 7.0 °F -1.7 °F -0.0 °F 73% 30.27 in 10.0 mi NNE 4.6 mph - N/A   Clear
6:54 AM 7.0 °F -1.7 °F -0.0 °F 73% 30.28 in 10.0 mi NE 4.6 mph - N/A   Clear
7:54 AM 8.1 °F -3.2 °F -0.0 °F 70% 30.28 in 10.0 mi Variable 6.9 mph - N/A   Clear
8:54 AM 9.0 °F -5.1 °F -0.9 °F 64% 30.30 in 10.0 mi East 10.4 mph - N/A   Clear
9:54 AM 10.9 °F -0.8 °F -2.0 °F 56% 30.32 in 10.0 mi East 8.1 mph - N/A   Clear
10:54 AM 14.0 °F 1.2 °F -2.0 °F 49% 30.32 in 10.0 mi SE 10.4 mph - N/A   Clear
11:54 AM 17.1 °F 4.3 °F -0.9 °F 45% 30.30 in 10.0 mi SE 11.5 mph - N/A   Clear
12:54 PM 18.0 °F 6.9 °F -0.9 °F 44% 30.29 in 10.0 mi East 9.2 mph - N/A   Clear
1:54 PM 19.9 °F 11.1 °F -0.0 °F 42% 30.26 in 10.0 mi ESE 6.9 mph 16.1 mph N/A   Clear
2:54 PM 21.9 °F 13.4 °F 3.0 °F 44% 30.22 in 10.0 mi SE 6.9 mph - N/A   Clear
3:54 PM 23.0 °F 11.7 °F 3.0 °F 42% 30.20 in 10.0 mi SE 11.5 mph - N/A   Clear
4:54 PM 23.0 °F 13.1 °F 6.1 °F 48% 30.18 in 10.0 mi SSE 9.2 mph - N/A   Clear
5:54 PM 23.0 °F 11.7 °F 6.1 °F 48% 30.16 in 10.0 mi SE 11.5 mph - N/A   Clear
6:54 PM 21.0 °F 9.9 °F 8.1 °F 57% 30.15 in 10.0 mi ESE 10.4 mph - N/A   Clear
7:54 PM 19.9 °F 8.6 °F 8.1 °F 60% 30.15 in 10.0 mi ESE 10.4 mph - N/A   Clear
8:54 PM 19.0 °F 7.5 °F 9.0 °F 65% 30.14 in 10.0 mi ESE 10.4 mph - N/A   Clear
9:54 PM 18.0 °F 4.8 °F 10.0 °F 71% 30.12 in 10.0 mi ESE 12.7 mph - N/A   Clear
10:54 PM 17.1 °F 4.3 °F 10.0 °F 74% 30.10 in 10.0 mi ESE 11.5 mph - N/A   Clear
11:54 PM 16.0 °F 5.3 °F 10.0 °F 77% 30.07 in 10.0 mi ESE 8.1 mph - N/A   Clear